Location: *
(35.2348°S, 91.3916°E)
Time: 11:51:02
(UTC+00:00)

SJ 16-02 - Pass Details

Date: 23 October 2019
Orbit: 607 x 616 km, 75.0° (Epoch: 20 November)

Event Time Altitude Azimuth Distance (km) Brightness Sun altitude
Exits shadow 14:31:48 12° 145° (SE) 1,894 3.9 -25.7°
Drops below altitude 10° 14:32:04 10° 146° (SE) 1,994 4.0 -25.8°
Sets 14:34:27 0° 154° (SSE) 2,910 5.0 -26.2°
